MOLNIYA 1-86 (22671 NORAD) Tracking and Keplerian Element Data

This shows tracking and keplerian element data for the satellite.

Feedback or suggestion? Click here.




ElementValue
Catalog22671
NameMOLNIYA 1-86
Epoch Orbit40649
Epoch Day34.85431414
Epoch Year2025
RAAN33.8778
Inclination63.0574
Eccentricity0.4889056
Argument of Perigee23.3499
Mean Anonmoly352.8967
Mean Motion5.63960166
Decay Rate1.554E-05
L11 22671U 93035A 25034.85431414 .00001554 00000+0 13276-2 0 9997
L22 22671 63.0574 33.8778 4889056 23.3499 352.8967 5.63960166406496



Live tracking and technical data element details for MOLNIYA 1-86 (NORAD 22671). MOLNIYA 1-86 can be tracked NOW for your location showing map with azimuth and elevation plus other details from your city location.







IsCatalogInMostPopularTable: catalog: 22671, numindb: 294
Update: records affected: 1



GetName: 22671 MOLNIYA 1-86

Hit Count: updated at: Thu, 15 May 2025 18:54:47 GMT